Weather History for KICL - November, 2012

Change the Weather History Date:

Saturday, November 17, 2012

  Actual Average Record
Temperature  
Mean Temperature 42 °F -  
Max Temperature 60 °F 49 °F 73 °F (2001)
Min Temperature 24 °F 29 °F 6 °F (2014)
Degree Days  
Heating Degree Days 23    
Moisture  
Dew Point 27 °F    
Average Humidity 59    
Maximum Humidity 93    
Minimum Humidity 27    
Precipitation  
Precipitation 0.00 in - - ()
Sea Level Pressure  
Sea Level Pressure 30.29 in    
Wind  
Wind Speed 5 mph (SSE)    
Max Wind Speed 18 mph    
Max Gust Speed 26 mph    
Visibility 9 miles    
Events      
Averages and records for this station are not official NWS values.
T = Trace of Precipitation, MM = Missing Value Source: NWS Daily Summary

Daily Weather History Graph

Daily Weather History Graph

Search for Another Location

Airport or City:

Trip Planner

Search our weather history database for the weather conditions in past years. The results will help you decide how hot, cold, wet, or windy it might be!

Date:

Astronomy

Nov. 17, 2012 Rise Set
Actual Time 7:09 AM CST 5:00 PM CST
Civil Twilight 6:40 AM CST 5:29 PM CST
Nautical Twilight 6:07 AM CST 6:02 PM CST
Astronomical Twilight 5:34 AM CST 6:35 PM CST
Moon 10:55 AM CST (11/17) 9:11 PM CST (11/17)
Length of Visible Light 10h 49m
Length of Day
9h 50m
Waxing Crescent, 20% of the Moon is Illuminated
Nov 17
Waxing Crescent
Nov 20
First Quarter
Nov 28
Full
Dec 6
Last Quarter
Dec 13
New

Hourly Weather History & Observations

Time (CST) Temp. Windchill Dew Point Humidity Pressure Visibility Wind Dir Wind Speed Gust Speed Precip Events Conditions
12:15 AM 30.2 °F 26.7 °F 26.6 °F 86% 30.35 in 10.0 mi South 3.5 mph - N/A   Clear
12:35 AM 32.0 °F - 28.4 °F 87% 30.35 in 10.0 mi Calm Calm - N/A   Clear
12:55 AM 30.2 °F - 26.6 °F 86% 30.34 in 10.0 mi Calm Calm - N/A   Clear
1:15 AM 33.8 °F 30.8 °F 28.4 °F 81% 30.34 in 10.0 mi SW 3.5 mph - N/A   Clear
1:35 AM 33.8 °F - 26.6 °F 75% 30.34 in 10.0 mi Calm Calm - N/A   Clear
1:55 AM 33.8 °F - 28.4 °F 81% 30.35 in 10.0 mi Calm Calm - N/A   Clear
2:15 AM 32.0 °F - 26.6 °F 80% 30.35 in 10.0 mi Calm Calm - N/A   Clear
2:35 AM 30.2 °F - 26.6 °F 86% 30.35 in 7.0 mi Calm Calm - N/A   Clear
2:55 AM 28.4 °F - 26.6 °F 93% 30.35 in 7.0 mi Calm Calm - N/A   Clear
3:15 AM 30.2 °F - 26.6 °F 86% 30.35 in 7.0 mi Calm Calm - N/A   Clear
3:35 AM 28.4 °F - 26.6 °F 93% 30.34 in 7.0 mi Calm Calm - N/A   Clear
3:55 AM 28.4 °F - 26.6 °F 93% 30.34 in 7.0 mi Calm Calm - N/A   Clear
4:15 AM 28.4 °F - 26.6 °F 93% 30.34 in 7.0 mi Calm Calm - N/A   Clear
4:35 AM 26.6 °F - 24.8 °F 93% 30.34 in 5.0 mi Calm Calm - N/A   Clear
4:55 AM 26.6 °F - 24.8 °F 93% 30.34 in 7.0 mi Calm Calm - N/A   Clear
5:15 AM 28.4 °F - 24.8 °F 86% 30.34 in 5.0 mi Calm Calm - N/A   Clear
5:35 AM 26.6 °F - 21.2 °F 80% 30.33 in 7.0 mi Calm Calm - N/A   Clear
5:55 AM 26.6 °F - 24.8 °F 93% 30.33 in 7.0 mi Calm Calm - N/A   Clear
6:15 AM 26.6 °F - 24.8 °F 93% 30.33 in 7.0 mi Calm Calm - N/A   Clear
6:35 AM 26.6 °F - 23.0 °F 86% 30.33 in 7.0 mi Calm Calm - N/A   Clear
6:55 AM 24.8 °F - 23.0 °F 93% 30.33 in 7.0 mi Calm Calm - N/A   Clear
7:15 AM 24.8 °F - 21.2 °F 86% 30.34 in 4.0 mi Calm Calm - N/A   Clear
7:35 AM 26.6 °F - 23.0 °F 86% 30.34 in 5.0 mi Calm Calm - N/A   Clear
7:55 AM 26.6 °F - 24.8 °F 93% 30.34 in 3.0 mi Calm Calm - N/A   Clear
8:15 AM 30.2 °F - 28.4 °F 93% 30.34 in 5.0 mi Calm Calm - N/A   Clear
8:35 AM 35.6 °F - 30.2 °F 81% 30.34 in 7.0 mi Calm Calm - N/A   Clear
8:55 AM 39.2 °F - 33.8 °F 81% 30.34 in 10.0 mi Calm Calm - N/A   Clear
9:15 AM 44.6 °F 42.2 °F 35.6 °F 71% 30.33 in 10.0 mi South 4.6 mph - N/A   Clear
9:35 AM 48.2 °F - 35.6 °F 62% 30.33 in 10.0 mi South 6.9 mph - N/A   Clear
9:55 AM 50.0 °F - 33.8 °F 54% 30.33 in 10.0 mi South 9.2 mph - N/A   Clear
10:15 AM 51.8 °F - 33.8 °F 50% 30.33 in 10.0 mi South 12.7 mph - N/A   Clear
10:35 AM 53.6 °F - 33.8 °F 47% 30.33 in 10.0 mi South 11.5 mph - N/A   Clear
11:55 AM 55.4 °F - 30.2 °F 38% 30.30 in 10.0 mi South 17.3 mph 24.2 mph N/A   Clear
12:15 PM 57.2 °F - 30.2 °F 36% 30.30 in 10.0 mi South 17.3 mph 24.2 mph N/A   Clear
12:35 PM 57.2 °F - 28.4 °F 33% 30.29 in 10.0 mi South 16.1 mph 23.0 mph N/A   Clear
12:55 PM 59.0 °F - 26.6 °F 29% 30.28 in 10.0 mi South 18.4 mph 24.2 mph N/A   Clear
1:15 PM 59.0 °F - 24.8 °F 27% 30.27 in 10.0 mi South 18.4 mph 26.5 mph N/A   Clear
1:35 PM 59.0 °F - 26.6 °F 29% 30.25 in 10.0 mi South 18.4 mph 26.5 mph N/A   Clear
1:55 PM 59.0 °F - 24.8 °F 27% 30.26 in 10.0 mi South 18.4 mph 26.5 mph N/A   Clear
2:15 PM 60.8 °F - 26.6 °F 27% 30.25 in 10.0 mi SSE 18.4 mph 25.3 mph N/A   Clear
2:35 PM 57.2 °F - 26.6 °F 31% 30.24 in 10.0 mi South 18.4 mph 23.0 mph N/A   Clear
2:55 PM 59.0 °F - 26.6 °F 29% 30.23 in 10.0 mi South 15.0 mph 24.2 mph N/A   Clear
3:15 PM 57.2 °F - 26.6 °F 31% 30.23 in 10.0 mi South 13.8 mph - N/A   Clear
3:35 PM 59.0 °F - 24.8 °F 27% 30.23 in 10.0 mi SSE 13.8 mph 19.6 mph N/A   Clear
3:55 PM 57.2 °F - 24.8 °F 29% 30.23 in 10.0 mi SSE 11.5 mph 16.1 mph N/A   Clear
4:15 PM 57.2 °F - 24.8 °F 29% 30.23 in 10.0 mi SSE 9.2 mph - N/A   Clear
4:35 PM 55.4 °F - 26.6 °F 33% 30.23 in 10.0 mi SSE 9.2 mph - N/A   Clear
4:55 PM 53.6 °F - 26.6 °F 35% 30.22 in 10.0 mi SSE 9.2 mph - N/A   Clear
5:15 PM 53.6 °F - 28.4 °F 38% 30.22 in 10.0 mi SSE 8.1 mph - N/A   Clear
5:35 PM 51.8 °F - 26.6 °F 38% 30.23 in 10.0 mi SSE 8.1 mph - N/A   Clear
5:55 PM 50.0 °F - 26.6 °F 40% 30.23 in 10.0 mi SSE 8.1 mph - N/A   Clear
6:15 PM 50.0 °F - 26.6 °F 40% 30.23 in 10.0 mi SSE 10.4 mph - N/A   Clear
6:35 PM 50.0 °F - 26.6 °F 40% 30.23 in 10.0 mi SSE 10.4 mph - N/A   Clear
6:55 PM 50.0 °F - 26.6 °F 40% 30.23 in 10.0 mi SSE 10.4 mph - N/A   Clear
7:15 PM 50.0 °F - 26.6 °F 40% 30.23 in 10.0 mi SSE 9.2 mph - N/A   Clear
7:35 PM 48.2 °F - 26.6 °F 43% 30.23 in 10.0 mi SSE 8.1 mph - N/A   Clear
7:55 PM 48.2 °F - 28.4 °F 46% 30.23 in 10.0 mi SSE 9.2 mph - N/A   Clear
8:15 PM 48.2 °F - 28.4 °F 46% 30.23 in 10.0 mi SSE 10.4 mph - N/A   Clear
8:35 PM 48.2 °F - 28.4 °F 46% 30.23 in 10.0 mi SSE 11.5 mph 16.1 mph N/A   Clear
8:55 PM 50.0 °F - 26.6 °F 40% 30.23 in 10.0 mi South 12.7 mph 18.4 mph N/A   Clear
9:15 PM 50.0 °F - 28.4 °F 43% 30.23 in 10.0 mi South 9.2 mph 17.3 mph N/A   Clear
9:35 PM 48.2 °F - 28.4 °F 46% 30.24 in 10.0 mi South 8.1 mph - N/A   Clear
9:55 PM 46.4 °F 43.5 °F 28.4 °F 50% 30.24 in 10.0 mi SSE 5.8 mph - N/A   Clear
10:15 PM 46.4 °F 42.9 °F 28.4 °F 50% 30.23 in 10.0 mi SSE 6.9 mph - N/A   Clear
10:35 PM 46.4 °F 43.5 °F 28.4 °F 50% 30.23 in 10.0 mi SSE 5.8 mph - N/A   Clear
10:55 PM 44.6 °F 40.7 °F 28.4 °F 53% 30.23 in 10.0 mi South 6.9 mph - N/A   Clear
11:15 PM 44.6 °F 41.4 °F 28.4 °F 53% 30.23 in 10.0 mi SSE 5.8 mph - N/A   Clear
11:35 PM 44.6 °F 42.2 °F 28.4 °F 53% 30.23 in 10.0 mi SSE 4.6 mph - N/A   Clear
11:55 PM 42.8 °F 40.1 °F 28.4 °F 57% 30.23 in 10.0 mi South 4.6 mph - N/A   Clear